Prox-1
1 44339U 19036A   25039.64344381  .00018720  00000-0  26288-2 0  9990
2 44339  23.9972 133.9197 0008496 130.0494 230.0748 14.75836503300197
SONATE
1 44400U 19038Q   25039.48992594  .00064229  00000-0  85592-3 0  9997
2 44400  97.7100  53.8334 0008692 352.3979   7.7142 15.57880911310546
Taurus 1
1 44530U 19059C   25039.79714118  .00012007  00000-0  23604-2 0  9994
2 44530  98.5899 173.8281 0009317  47.7754 312.4235 14.62752637286267
Duchifat 3
1 44854U 19089C   25039.66552835  .00042042  00000-0  12619-2 0  9994
2 44854  36.9497  36.7054 0010553 261.3302  98.6255 15.33458405284299
TO-108
1 44881U 19093C   25039.84449017  .00001835  00000-0  22055-3 0  9997
2 44881  97.8048 117.9980 0012623 267.8180  92.1590 14.85107130278153
FloripaSat 1
1 44885U 19093G   25039.79943011  .00009584  00000-0  85753-3 0  9991
2 44885  97.8237 127.3375 0010000 247.6043 112.4119 14.96028929278671
RS-44
1 44909U 19096E   25039.84318138  .00000004  00000-0 -26288-4 0  9991
2 44909  82.5235 307.5183 0216669 217.6910 140.8844 12.79738177239292
UPMSat 2
1 46276U 20061E   25039.79385565  .00046712  00000-0  76917-3 0  9994
2 46276  97.2643 111.5474 0000565  39.2251 320.9043 15.52200557246633
SALSAT
1 46495U 20068K   25039.86297629  .00012473  00000-0  58587-3 0  9995
2 46495  97.8468  12.6668 0010972 211.4911 148.5667 15.19717182240172
CubeSX-Sirius-HSE
1 47951U 21022V   25039.83621085  .00081769  00000-0  13770-2 0  9996
2 47951  97.4351 306.9201 0009859  33.1593 327.0275 15.51369750214907
CubeSX-HSE
1 47952U 21022W   25039.75375282  .00083414  00000-0  13812-2 0  9999
2 47952  97.4353 307.0086 0009499  29.7448 330.4342 15.51841520214906
KSU-Cubesat
1 47954U 21022Y   25039.70853615  .00233673  00000-0  19173-2 0  9997
2 47954  97.4327 310.8467 0007128  47.8269 312.3597 15.69730462214860
GRBAlpha
1 47959U 21022AD  25039.77940968  .00083390  00000-0  13866-2 0  9999
2 47959  97.4343 307.1975 0009811  32.2410 327.9440 15.51720622213735
Orbicraft-Zorkiy
1 47960U 21022AE  25039.81815996  .00131423  00000-0  15072-2 0  9990
2 47960  97.4338 310.2134 0007951  36.9235 323.2568 15.61614695214590
TUBIN
1 48900U 21059X   25039.80373980  .00041577  00000-0  81380-3 0  9992
2 48900  97.6647 200.5060 0005097 324.3485  35.7423 15.47286547201281
LEDSAT
1 49069U 21073D   25039.74684101  .00050991  00000-0  11197-2 0  9996
2 49069  97.4058 117.7491 0013099 158.2289 201.9518 15.43783377192691
CUTE
1 49263U 21088D   25039.24134280  .00015080  00000-0  37238-3 0  9996
2 49263  97.4665 112.4220 0008664 327.7443  32.3273 15.40566233185705
TeikyoSat 4
1 49396U 21102B   25039.59190711  .00004374  00000-0  29787-3 0  9993
2 49396  97.4297  82.3362 0012648 182.0702 178.0475 15.06723048178325
Z-Sat
1 49399U 21102E   25039.83972543  .00006437  00000-0  37014-3 0  9998
2 49399  97.4002  84.9889 0019325 157.9330 202.2737 15.12649521178715
KOSEN 1
1 49402U 21102H   25039.66575564  .00011054  00000-0  55107-3 0  9990
2 49402  97.3914  87.3974 0017764 137.9408 222.3193 15.17572064178937
HO-113
1 50466U 21131B   25039.84623377  .00000982  00000-0  32236-3 0  9996
2 50466  98.5142 129.8172 0005042 131.5489 228.6132 14.40519745164065
IRIS-A
1 51044U 22002BN  25039.23855231  .00070806  00000-0  98657-3 0  9997
2 51044  97.3472 114.0290 0003833 263.3872  96.6947 15.56690010170791
Foresail-1
1 52766U 22057AL  25039.84597120  .00075610  00000-0  10627-2 0  9994
2 52766  97.5969 180.9707 0006242 350.6926   9.4212 15.56422168150925
SNUGLITE 2
1 52899U 22065F   25039.63499885  .00002599  00000-0  52071-3 0  9992
2 52899  98.1466 182.9728 0008399 128.5888 231.6067 14.62585713138802
IO-117
1 53106U 22080B   25034.56446200 -.00000003  00000-0  00000-0 0  9992
2 53106  70.1417 112.1355 0008120  52.7419 307.3980  6.42557586 60132
FO-118
1 54684U 22167C   25039.77564250  .00359155  00000-0  18676-2 0  9998
2 54684  97.6084 202.6594 0007317 324.2818  35.7959 15.79972258120878
SO-120
1 56992U 23084BU  25039.80387691  .02092943  40221-2  24440-2 0  9995
2 56992  97.5138 175.2449 0012015 296.5690  63.4361 16.09638365 92791
UmKA 1 (RS40S)
1 57172U 23091G   25039.88192821  .00008045  00000-0  45803-3 0  9995
2 57172  97.5788  95.9628 0015942  35.6700 324.5592 15.12991785 89217
CubeBel-2 (EU11S)
1 57175U 23091K   25039.84839077  .00011734  00000-0  61784-3 0  9990
2 57175  97.5785  96.4567 0014004  45.2619 314.9750 15.15691932 89245
VERONIKA
1 58261U 23174F   25039.79719820  .00061894  00000-0  13632-2 0  9996
2 58261  97.4303 121.3486 0007462 122.6371 237.5597 15.43705687 69904
KAFASAT
1 58317U 23174BP  25039.56251393  .00170317  00000-0  19487-2 0  9994
2 58317  97.4191 124.2053 0002893  77.7675 282.3906 15.61576320 70097
ENSO
1 58470U 23185J   25039.80014566  .00045709  00000-0  10982-2 0  9999
2 58470  97.3925 112.2980 0009065 153.8345 206.3362 15.41158934 66345
EIRSAT-1
1 58472U 23185L   25039.83452700  .00052965  00000-0  11205-2 0  9991
2 58472  97.3919 112.9742 0008078 154.5003 205.6645 15.44934285 66390
SONATE-2
1 59112U 24043Q   25039.60440670  .00023349  00000-0  81455-3 0  9994
2 59112  97.4962 169.0162 0011999 181.7813 178.3387 15.29551770 51803
MO-122
1 60209U 24125G   25039.38008387  .00021999  00000-0  75848-3 0  9992
2 60209  97.2950 252.7340 0020473 208.8239 151.1872 15.29808651 33389
GRBBeta
1 60237U 24128C   25039.62468892  .00006507  00000-0  51752-3 0  9990
2 60237  61.9928 140.7492 0039550  29.1795 331.1493 15.00771280 32030
Curium One
1 60242U 24128H   25039.61632645  .00010974  00000-0  83347-3 0  9992
2 60242  61.9831 140.4699 0039782  23.3591 336.9295 15.01997089 32044
ROBUSTA-3A
1 60243U 24128J   25039.58625281  .00010677  00000-0  82036-3 0  9991
2 60243  61.9899 141.0386 0038009  21.3205 338.9458 15.01632690 32036
CatSat
1 60246U 24125J   25039.53449747  .00016001  00000-0  59090-3 0  9998
2 60246  97.2739 253.2585 0046077 162.8023 197.4790 15.26805688 31496
HYPERVIEW-1G (RS66S)
1 61772U 24199AP  25039.85925875  .00026958  00000-0  97264-3 0  9997
2 61772  97.3742 269.3981 0014148 265.0641  94.8983 15.28392207 58471
AO-123
1 61781U 24199AY  25039.82080442  .00011739  00000-0  46351-3 0  9998
2 61781  97.3751 269.1551 0015124 266.0497  93.9013 15.25573102 58451
POEM 4 (BGS ARPIT)
1 62461U 24253C   25039.56592310  .00142824  00000-0  72609-3 0  9993
2 62461  55.2201  65.6292 0012162  35.4730 324.7126 15.80495470  6273
